Regional Weather Roundup
Issued by NWS

Home | Current Version | Previous Version | Text Only | Print | Product List | Glossary On
Versions: 1 2 3 4 5 6 7 8 9 10 11 12 13 14 15 16 17 18 19 20 21 22 23 24 25 26 27 28 29 30 31 32 33 34 35 36 37 38 39 40 41 42 43 44 45 46 47 48 49 50
996
ASUS43 KIND 232209
RWRIN

WEATHER ROUNDUP FOR INDIANA
NATIONAL WEATHER SERVICE INDIANAPOLIS IN
600 PM EDT WED AUG 23 2017

NOTE: "FAIR" INDICATES FEW OR NO CLOUDS BELOW 12,000 FEET WITH NO
SIGNIFICANT WEATHER AND/OR OBSTRUCTIONS TO VISIBILITY.

* - STATION DOES NOT REPORT WEATHER SUCH AS PRECIPITATION OR FOG.

+ - STATION NOT QUALITY CONTROLLED BY THE NATIONAL WEATHER SERVICE.
    USE DATA WITH CAUTION...ESPECIALLY DEWPOINT AND RELATIVE
    HUMIDITY OBSERVATIONS.

INZ001>003-010>013-019-020-232300-
NORTHWEST INDIANA

CITY           SKY/WX    TMP DP  RH WIND       PRES   REMARKS
GARY /AIRPORT/ MOSUNNY   73  54  49 NE8       30.02F
KNOX *+        SUNNY     72  55  56 N10       30.01S
LA PORTE +     SUNNY     71  54  54 N7        30.02F
MICHIGAN CITY+ SUNNY     70  54  56 N9        30.03S
MONTICELLO +   PTSUNNY   75  53  45 NW8       30.00F
RENSSELAER +   CLOUDY    73  43  33 W6        30.01S
VALPARAISO     SUNNY     75  57  53 N3        30.02S

$$

LMZ046-743>745-232300-
SOUTHERN LAKE MICHIGAN

STATION/POSITION TIME  TEMP    WIND        PRES    WAVE
                       AIR SEA DIR/SP/G            HT
                 (UTC) (F)     (DEG/KT/KT) (MB)    (FT)
BURNS HARBOR     2140   71      50/  9/ 12 1016.9S
MICHIGAN CITY    2140   68      30/ 12/ 13   N/A
5NW MICH CITY    2200   69 74   40/ 10/ 14   N/A     3

$$

INZ004-005-014>016-021>024-232300-
NORTH CENTRAL INDIANA

CITY           SKY/WX    TMP DP  RH WIND       PRES   REMARKS
ELKHART        MOSUNNY   72  50  46 NW12G17   30.02S
GOSHEN         MOSUNNY   72  49  44 NW15      30.01S
LOGANSPORT +   MOSUNNY   72  52  49 NW5       30.02S
PERU/GRISSOM   PTSUNNY   73  53  49 NW6       30.00S
ROCHESTER +    MOSUNNY   77  52  41 N8        30.02S
SOUTH BEND     SUNNY     71  53  52 N16       30.02S
WARSAW +       SUNNY     72  52  49 NW12      30.01S

$$

INZ006>009-017-018-025>027-232300-
NORTHEAST INDIANA

CITY           SKY/WX    TMP DP  RH WIND       PRES   REMARKS
AUBURN +       MOSUNNY   73  48  40 NW13G18   30.00S
FORT WAYNE     MOSUNNY   74  50  42 NW13      29.99S
HUNTINGTON +   SUNNY     73  51  44 NW9       30.00S
KENDALLVILLE + MOSUNNY   70  51  52 NW7       30.01R

$$

INZ028-029-035-036-043>045-051>053-232300-
WEST CENTRAL INDIANA

CITY           SKY/WX    TMP DP  RH WIND       PRES   REMARKS
GREENCASTLE +  MOSUNNY   73  50  43 NW3       30.03F
LAFAYETTE      MOSUNNY   75  52  44 NW9G18    30.01S
TERRE HAUTE    SUNNY     78  50  37 N6        30.01F

$$

INZ030>032-037>040-046>048-054>057-064-065-232300-
CENTRAL INDIANA

CITY           SKY/WX    TMP DP  RH WIND       PRES   REMARKS
CP ATTERBURY + SUNNY     77  48  36 NW7       30.01S
FRANKFORT +    PTSUNNY   77  53  43 NW8       30.04S
GREENWOOD *+   MOSUNNY   84  58  41 N8        30.02S
INDIANAPOLIS   MOSUNNY   75  49  39 NW12      30.01F
-EAGLE CREEK   PTSUNNY   75  49  39 N9        30.01F
KOKOMO +       CLOUDY    73  56  54 N7        30.02S
MARION +       SUNNY     72  55  56 NW7       30.01F
MT COMFORT *+  SUNNY     75  52  43 N8        30.02F
SHELBYVILLE    PTSUNNY   76  50  40 N7        30.00S
ZIONSVILLE +   SUNNY     71  51  49 NW6       30.03S

$$

INZ033-034-041-042-049-050-058-059-232300-
EAST CENTRAL INDIANA

CITY           SKY/WX    TMP DP  RH WIND       PRES   REMARKS
MUNCIE         MOSUNNY   76  53  44 NW7       30.00F
RICHMOND +     PTSUNNY   73  52  46 NW7       30.01F

$$

INZ060-061-067>069-081>083-085>088-232300-
SOUTHWEST INDIANA

CITY           SKY/WX    TMP DP  RH WIND       PRES   REMARKS
EVANSVILLE     SUNNY     79  53  40 NW8       30.01F
HUNTINGBURG +  SUNNY     78  56  46 MISG      30.00F
WASHINGTON +   SUNNY     76  51  40 MISG      30.01S

$$

INZ062-063-066-070>080-084-089>092-232300-
SOUTH CENTRAL AND SOUTHEAST INDIANA

CITY           SKY/WX    TMP DP  RH WIND       PRES   REMARKS
BEDFORD +      PTSUNNY   77  48  36 NW5       30.00S
BLOOMINGTON    PTSUNNY   78  49  35 VRB5      30.02S
MADISON *+     MOSUNNY   77  52  41 CALM      30.02F
NORTH VERNON + MOSUNNY   75  52  43 N7        30.01S
SEYMOUR +      SUNNY     79  52  38 N9        30.00S

$$





USA.gov is the U.S. government's official web portal to all federal, state and local government web resources and services.